Wind_Speed
3 4 5 5 6 7 7 7 7 8 8 9 9 9 10 10 11 11 12 12 13 13 14 13 14 14 14 14 13 13 12 12 12 12 12 12 12 11 11 11 12 12 12
4 5 6 7 8 8 8 7 8 8 9 9 10 10 11 11 12 13 13 13 14 14 14 14 14 15 15 15 14 14 13 13 12 13 13 12 12 12 12 12 13 13 13
6 7 8 8 8 9 8 9 9 9 10 10 11 12 12 12 13 14 14 14 15 15 15 15 15 15 15 15 15 14 14 14 13 13 13 13 13 13 13 13 14 14 14
7 8 8 9 9 9 9 9 10 10 11 12 12 13 13 14 14 14 15 15 16 16 16 16 16 15 15 15 15 15 14 14 14 14 15 15 14 14 14 14 15 15 15
9 9 10 10 10 10 10 10 11 11 12 13 14 14 14 14 15 15 15 16 17 18 17 17 16 16 16 15 15 15 15 15 15 15 15 15 15 15 15 15 15 15 16
11 11 11 11 11 11 11 11 12 12 13 14 15 14 15 15 15 16 17 17 18 18 17 17 17 16 17 17 16 16 16 16 16 16 16 16 16 16 15 15 16 16 16
11 12 12 12 12 12 13 13 13 14 14 15 15 15 15 16 16 17 18 18 18 18 18 18 17 18 18 18 17 17 17 17 17 17 17 17 17 17 16 16 16 17 17
12 12 13 13 13 13 13 13 14 15 15 15 15 16 16 17 18 18 18 19 19 19 19 18 18 19 19 19 19 18 18 18 18 18 18 18 18 18 18 18 18 18 17
12 12 13 13 13 13 13 13 14 14 15 16 16 16 17 18 18 19 19 20 20 19 19 19 19 20 21 21 20 20 20 19 19 19 20 20 19 19 20 19 19 18 18
13 13 14 13 13 13 13 14 14 14 15 16 16 17 17 18 19 19 20 20 20 20 20 20 20 21 22 22 21 21 20 20 20 20 20 20 21 21 21 20 20 20 20
13 14 15 14 14 14 15 15 15 16 16 17 17 17 18 19 19 20 20 21 20 21 21 21 21 22 23 23 22 22 22 22 21 21 21 21 21 21 21 22 21 22 22
14 15 16 15 15 15 16 16 16 17 18 18 19 19 19 19 19 20 20 20 21 21 21 22 22 22 23 23 23 23 23 22 22 22 21 21 22 22 23 23 23 23 23
16 17 17 17 17 17 17 17 18 19 19 19 20 20 21 20 20 20 20 21 21 22 22 22 23 23 23 23 23 23 23 23 22 23 23 23 23 24 24 25 24 24 24
18 18 18 17 17 17 17 18 19 20 21 22 22 22 22 22 22 22 21 21 22 22 23 24 23 24 24 23 22 22 22 22 23 23 24 24 24 24 25 25 25 25 25
18 18 19 18 18 18 18 19 19 20 22 22 23 22 22 23 22 23 23 23 23 24 24 24 25 24 24 24 23 23 23 24 24 24 24 24 25 25 25 25 25 26 26
19 19 19 18 18 19 19 20 21 22 23 25 25 25 24 23 23 23 23 24 25 25 25 25 25 25 25 25 25 25 25 25 25 25 25 25 25 25 25 25 25 26 26
20 20 20 19 19 20 20 21 22 23 24 24 25 26 25 24 24 24 24 25 26 26 26 26 26 25 26 26 26 26 26 26 26 26 26 26 26 25 25 24 24 25 26
21 21 21 21 21 21 22 22 23 24 24 25 25 26 26 26 27 26 25 26 27 26 26 25 25 25 25 25 26 27 27 27 27 26 26 26 26 26 25 25 25 26 26
22 22 22 22 23 23 23 23 23 24 25 25 25 25 26 27 27 27 27 27 28 27 26 26 25 26 26 27 27 28 28 28 28 27 26 26 26 27 26 26 27 27 27
24 24 23 23 23 23 24 24 24 25 26 26 27 27 27 27 28 28 28 28 28 27 27 28 28 28 28 28 28 28 28 28 27 27 27 27 26 27 27 27 28 28 27
23 23 23 23 23 23 24 24 24 25 26 27 27 27 28 28 29 29 29 29 29 29 30 30 30 30 29 28 28 28 29 29 28 28 28 27 27 28 28 28 29 29 29
22 22 23 23 24 23 23 23 24 25 25 26 27 29 30 30 30 30 30 30 30 31 31 30 30 31 30 30 29 29 29 29 30 29 29 29 28 29 29 29 29 30 30
20 21 22 23 23 23 23 23 24 24 24 25 27 29 30 30 30 30 30 30 30 30 30 30 30 31 30 30 30 29 29 29 30 30 30 30 30 30 30 30 31 31 31
20 21 20 20 21 21 22 23 24 25 26 27 28 29 30 30 30 29 29 30 30 30 30 29 29 29 30 30 30 30 29 29 30 30 30 32 32 32 32 32 32 31 31
19 19 19 20 21 21 22 24 25 25 26 27 28 29 30 29 29 28 29 29 29 29 28 28 28 29 29 30 30 29 29 29 30 30 30 31 32 32 33 32 32 32 32
17 18 19 20 20 21 22 23 24 25 26 27 27 28 28 27 28 28 28 28 28 28 28 28 28 29 29 29 29 29 29 30 30 30 30 29 30 31 32 32 32 32 32
Wind_Direction
289 295 293 301 305 306 313 322 327 332 333 332 329 329 329 328 327 325 324 323 322 321 319 318 318 317 315 313 311 309 306 303 300 298 296 293 290 284 279 273 267 263 261
291 298 295 294 301 303 307 313 319 323 323 323 322 322 323 322 322 322 320 320 320 318 317 314 314 314 312 311 308 306 304 301 297 295 293 290 287 283 279 275 269 265 263
288 293 292 295 297 297 299 305 313 315 314 315 316 316 316 316 317 317 318 317 317 316 313 313 311 311 310 309 307 304 302 299 295 292 289 287 285 280 277 274 269 264 261
283 290 288 293 295 294 297 301 305 310 310 312 312 311 311 311 312 313 313 314 313 313 311 310 309 309 308 307 304 301 299 296 293 289 286 284 282 278 275 273 269 264 260
282 288 290 290 292 291 293 298 301 305 307 309 309 308 309 309 308 308 309 310 310 311 309 307 307 307 307 306 302 298 296 293 291 288 285 282 280 276 273 271 268 265 261
276 281 286 285 288 290 293 296 298 303 305 305 304 304 305 305 303 304 306 307 309 308 307 304 303 302 302 301 299 296 293 291 289 287 284 281 279 276 273 271 267 266 263
274 279 280 282 283 287 291 292 293 297 299 300 300 303 303 302 301 302 303 303 304 304 303 303 299 299 298 297 296 295 293 290 288 286 284 281 279 276 274 273 271 269 267
274 277 278 281 284 288 290 292 292 292 293 295 298 301 300 299 300 301 302 301 300 301 301 300 299 296 294 293 293 291 290 288 287 285 284 282 280 276 275 273 272 270 268
275 278 280 284 288 290 291 292 292 291 291 292 294 297 297 298 299 300 300 298 297 297 297 298 297 294 292 291 290 288 287 287 286 284 282 282 280 277 274 273 272 270 268
277 281 283 282 285 287 288 288 287 286 290 290 291 293 294 294 295 297 296 295 292 291 294 296 294 294 293 289 287 286 285 285 284 281 280 280 279 277 275 274 272 269 267
279 280 281 280 281 283 285 287 286 286 286 286 287 289 291 293 293 293 293 295 293 291 292 295 294 294 294 291 285 284 284 283 282 281 278 277 277 276 275 273 272 269 266
278 283 284 281 281 285 286 286 284 284 284 284 285 287 290 291 291 292 292 292 294 294 293 294 294 293 293 291 288 284 283 282 281 281 278 276 277 275 273 271 271 269 267
278 281 285 289 289 288 285 282 280 283 284 284 286 288 288 287 287 288 290 290 291 292 292 292 293 292 292 292 289 286 284 284 282 282 280 279 277 275 272 271 269 268 267
279 282 285 289 290 286 281 282 283 285 286 284 286 287 285 285 286 287 289 290 290 291 291 291 292 292 291 291 290 288 285 285 286 284 283 281 278 276 273 271 269 267 265
278 280 283 283 283 286 284 284 283 284 286 288 290 290 289 288 286 288 288 289 290 290 290 291 290 289 289 289 290 288 286 285 285 287 283 280 279 278 276 273 270 268 265
279 280 280 281 281 282 282 281 282 284 285 289 291 290 292 290 290 290 287 287 289 289 288 289 289 287 288 289 289 288 286 285 284 284 284 279 277 277 275 272 270 268 265
278 278 279 281 283 283 282 280 281 283 285 287 288 289 290 291 290 290 292 289 289 287 286 287 286 286 286 287 287 287 286 285 285 284 283 278 276 274 273 270 269 268 265
277 279 280 282 284 282 281 281 280 282 283 284 286 287 289 290 292 292 291 289 288 287 285 286 287 285 285 286 286 286 285 285 285 284 281 278 277 274 270 268 268 269 267
274 277 279 281 281 279 279 279 279 280 281 284 286 285 286 288 290 290 289 289 288 286 284 285 287 286 286 286 286 285 285 285 286 284 282 279 279 276 271 269 267 268 266
275 275 278 279 279 278 279 280 281 281 281 283 285 285 284 285 287 288 288 287 287 287 286 287 285 284 284 284 285 285 285 285 285 283 281 279 279 276 272 269 267 266 265
276 275 277 277 277 278 280 281 282 283 282 283 284 285 284 284 285 286 288 289 288 286 287 287 286 284 284 284 285 285 285 284 283 281 279 277 277 276 272 270 268 266 264
276 276 277 277 276 278 281 281 281 283 282 282 285 287 288 286 285 287 288 288 288 288 288 286 284 285 283 283 283 283 282 281 281 280 278 276 277 276 273 270 269 266 265
280 282 279 277 274 276 278 279 280 281 282 284 286 287 288 287 288 288 288 288 288 289 288 285 283 283 283 284 284 283 282 279 279 280 280 278 278 275 273 271 270 269 266
283 282 281 280 278 279 280 280 281 283 284 285 287 289 291 291 292 290 289 288 288 289 288 286 284 284 284 286 285 284 284 282 280 279 279 278 278 276 274 274 273 271 268
282 284 286 285 283 284 285 285 285 286 287 287 288 290 291 291 292 292 292 292 291 290 290 288 286 286 286 286 286 285 283 282 281 280 279 278 276 275 274 274 273 270 268
284 283 286 288 287 286 286 288 288 288 290 291 292 292 292 293 294 293 293 294 293 292 291 292 289 288 288 287 287 287 285 285 284 282 281 279 276 274 274 274 273 271 268
Height
5879 5879 5880 5880 5880 5879 5879 5878 5878 5878 5878 5878 5877 5877 5877 5877 5877 5876 5876 5875 5875 5874 5873 5873 5872 5871 5871 5870 5870 5869 5869 5868 5868 5868 5867 5867 5868 5868 5868 5868 5868 5868 5869
5879 5879 5879 5879 5879 5878 5877 5877 5877 5877 5876 5876 5876 5876 5875 5875 5875 5874 5874 5873 5873 5872 5872 5871 5870 5869 5869 5868 5867 5867 5866 5866 5866 5865 5865 5865 5865 5865 5865 5865 5865 5865 5866
5877 5877 5877 5877 5877 5877 5876 5876 5876 5875 5875 5875 5875 5874 5874 5873 5873 5873 5872 5871 5871 5870 5870 5869 5868 5867 5867 5866 5865 5864 5864 5863 5863 5863 5863 5863 5863 5863 5863 5862 5862 5863 5863
5876 5876 5876 5876 5876 5875 5875 5875 5874 5874 5874 5873 5873 5872 5872 5871 5871 5870 5870 5869 5868 5868 5867 5866 5865 5865 5864 5863 5863 5862 5861 5861 5861 5860 5860 5860 5860 5860 5860 5860 5860 5860 5860
5874 5874 5874 5874 5874 5873 5873 5873 5873 5872 5872 5871 5871 5870 5870 5869 5869 5868 5867 5866 5865 5865 5864 5863 5863 5862 5862 5861 5860 5859 5859 5858 5858 5858 5857 5857 5857 5857 5856 5856 5857 5857 5857
5872 5872 5872 5872 5872 5872 5871 5871 5871 5870 5870 5869 5869 5868 5868 5867 5866 5866 5865 5864 5863 5862 5861 5860 5860 5859 5859 5858 5857 5857 5856 5855 5855 5854 5854 5854 5853 5853 5853 5853 5853 5853 5854
5870 5870 5871 5870 5870 5870 5869 5869 5868 5868 5868 5867 5866 5866 5865 5865 5864 5863 5862 5861 5860 5859 5858 5857 5856 5856 5855 5855 5854 5853 5852 5852 5851 5851 5851 5850 5850 5850 5849 5849 5849 5850 5850
5867 5867 5868 5868 5868 5867 5867 5866 5866 5866 5865 5865 5864 5864 5863 5862 5862 5861 5860 5858 5857 5856 5855 5854 5853 5853 5852 5851 5850 5850 5849 5848 5847 5847 5847 5846 5846 5846 5846 5845 5845 5845 5846
5865 5865 5865 5865 5865 5865 5864 5864 5864 5863 5863 5863 5862 5861 5860 5859 5858 5857 5856 5855 5854 5853 5852 5851 5850 5849 5848 5847 5846 5845 5845 5844 5843 5843 5843 5842 5842 5841 5841 5841 5841 5841 5842
5863 5863 5862 5862 5861 5862 5861 5861 5861 5860 5860 5860 5859 5858 5857 5856 5855 5854 5853 5852 5850 5849 5848 5847 5846 5845 5844 5843 5842 5841 5840 5840 5839 5839 5838 5838 5837 5837 5837 5837 5837 5837 5837
5860 5860 5859 5859 5859 5859 5858 5858 5858 5857 5857 5856 5855 5855 5854 5853 5851 5850 5849 5848 5847 5846 5844 5843 5842 5841 5840 5839 5838 5837 5836 5835 5834 5834 5833 5833 5833 5832 5832 5832 5832 5832 5832
5857 5857 5856 5855 5855 5855 5855 5855 5854 5854 5853 5853 5851 5851 5850 5849 5848 5846 5846 5844 5843 5842 5840 5839 5838 5837 5835 5834 5833 5832 5831 5830 5829 5829 5828 5828 5828 5828 5827 5827 5827 5827 5827
5853 5853 5853 5852 5852 5852 5852 5851 5851 5850 5849 5848 5847 5846 5845 5844 5844 5842 5841 5840 5839 5837 5836 5835 5834 5832 5831 5830 5829 5828 5827 5826 5825 5824 5823 5823 5822 5822 5822 5822 5822 5822 5822
5849 5849 5849 5849 5849 5848 5848 5848 5847 5846 5845 5844 5843 5842 5841 5841 5840 5838 5837 5836 5834 5833 5832 5831 5829 5828 5827 5825 5824 5823 5822 5821 5820 5819 5818 5817 5816 5816 5816 5815 5815 5816 5816
5845 5846 5846 5845 5845 5845 5844 5844 5843 5842 5841 5840 5839 5838 5837 5836 5835 5834 5832 5831 5830 5828 5827 5826 5824 5823 5822 5821 5819 5818 5817 5816 5815 5813 5812 5811 5810 5810 5809 5809 5809 5809 5809
5841 5841 5841 5841 5840 5840 5840 5839 5839 5838 5837 5836 5835 5834 5832 5831 5830 5829 5828 5826 5825 5823 5821 5820 5819 5818 5816 5815 5814 5813 5811 5810 5809 5808 5806 5805 5804 5804 5803 5803 5803 5803 5803
5837 5837 5836 5836 5836 5836 5835 5835 5834 5833 5832 5831 5830 5829 5828 5827 5825 5824 5823 5821 5820 5818 5816 5815 5813 5812 5811 5809 5808 5807 5806 5804 5803 5801 5800 5799 5798 5797 5797 5797 5797 5796 5796
5832 5832 5832 5831 5831 5831 5830 5830 5829 5828 5828 5826 5825 5824 5823 5821 5819 5818 5816 5815 5814 5812 5810 5809 5807 5806 5805 5803 5802 5800 5799 5798 5796 5795 5793 5792 5791 5791 5790 5790 5790 5790 5790
5827 5827 5827 5826 5826 5825 5825 5824 5824 5823 5822 5821 5819 5818 5817 5815 5814 5812 5810 5809 5807 5806 5804 5803 5801 5800 5799 5797 5795 5794 5792 5791 5790 5788 5787 5786 5785 5784 5783 5783 5783 5783 5783
5822 5822 5822 5821 5820 5820 5819 5818 5818 5817 5817 5815 5814 5813 5811 5810 5808 5806 5805 5803 5801 5800 5798 5796 5795 5793 5792 5790 5789 5787 5785 5784 5783 5781 5780 5779 5778 5777 5776 5775 5775 5775 5775
5817 5817 5817 5816 5815 5815 5814 5812 5812 5811 5810 5809 5808 5807 5805 5803 5802 5800 5798 5797 5794 5793 5791 5789 5788 5786 5784 5783 5781 5780 5778 5777 5775 5774 5773 5772 5771 5770 5769 5768 5767 5767 5767
5812 5811 5811 5811 5810 5809 5808 5807 5806 5806 5805 5803 5802 5800 5798 5796 5795 5793 5792 5790 5788 5786 5784 5782 5780 5778 5777 5775 5774 5772 5771 5770 5767 5766 5765 5764 5763 5762 5761 5760 5759 5759 5758
5807 5807 5805 5805 5804 5803 5802 5802 5801 5800 5799 5797 5796 5794 5791 5789 5787 5785 5784 5782 5780 5778 5776 5774 5772 5771 5769 5767 5766 5764 5763 5762 5760 5758 5757 5755 5754 5753 5752 5751 5751 5750 5750
5803 5802 5800 5800 5799 5798 5797 5796 5795 5794 5793 5791 5789 5787 5785 5782 5780 5778 5776 5774 5773 5771 5769 5767 5765 5763 5761 5760 5758 5756 5754 5753 5752 5751 5749 5747 5745 5744 5743 5742 5742 5741 5741
5799 5798 5796 5795 5794 5793 5791 5790 5789 5787 5786 5784 5782 5780 5778 5775 5773 5770 5769 5767 5765 5763 5761 5759 5757 5755 5753 5751 5749 5747 5745 5744 5742 5741 5740 5739 5737 5735 5734 5733 5733 5732 5732
5794 5793 5792 5791 5789 5788 5787 5785 5783 5781 5779 5777 5776 5773 5771 5768 5766 5763 5761 5760 5758 5756 5754 5751 5749 5747 5745 5743 5741 5739 5737 5735 5734 5732 5731 5730 5728 5727 5725 5725 5724 5723 5723